Location: Corralito
(10.2667°N, 66.9500°W)
Time: 03:58:02
(UTC+00:00)

Haruka - Pass Details

Date: 03 December 2023
Orbit: 529 x 21178 km, 31.2° (Epoch: 21 February)

Event Time Altitude Azimuth Distance (km) Brightness Sun altitude
Rises 09:12:27 0° 225° (SW) 5,780 7.3 -18.8°
Reaches altitude 10° 09:18:11 10° 212° (SSW) 3,226 6.1 -17.5°
Maximum altitude 09:23:06 23° 159° (SSE) 1,463 4.9 -16.3°
Drops below altitude 10° 09:25:58 10° 102° (ESE) 1,810 6.3 -15.7°
Sets 09:28:04 0° 84° (E) 2,652 7.0 -15.2°
